Weather History for Poteau, OK

Change the Weather History Date:

Tuesday, November 20, 2012

  Actual Average (KFSM) Record (KFSM)
Temperature  
Mean Temperature 59 °F 50 °F  
Max Temperature 77 °F 61 °F 82 °F (1989)
Min Temperature 41 °F 39 °F 18 °F (1914)
Degree Days  
Heating Degree Days 6 15  
Month to date heating degree days 234  
Since 1 July heating degree days 388  
Growing Degree Days 9 (Base 50)    
Moisture  
Dew Point 49 °F    
Average Humidity 80    
Maximum Humidity 100    
Minimum Humidity 41    
Precipitation  
Precipitation 0.00 in 0.15 in 1.53 in (1934)
Month to date precipitation 3.02  
Year to date precipitation 40.75  
Sea Level Pressure  
Sea Level Pressure 30.19 in    
Wind  
Wind Speed 1 mph (WNW)    
Max Wind Speed 8 mph    
Max Gust Speed -    
Visibility 8 miles    
Events      
T = Trace of Precipitation, MM = Missing Value Source: NWS Daily Summary

Daily Weather History Graph

Daily Weather History Graph

Search for Another Location

Airport:

Trip Planner

Search our weather history database for the weather conditions in past years. The results will help you decide how hot, cold, wet, or windy it might be!

Date:

Astronomy

Nov. 20, 2012 Rise Set
Actual Time 6:58 AM CST 5:09 PM CST
Civil Twilight 6:31 AM CST 5:37 PM CST
Nautical Twilight 6:00 AM CST 6:07 PM CST
Astronomical Twilight 5:30 AM CST 6:38 PM CST
Moon 12:41 PM CST (11/20) No Moon Set
Length of Visible Light 11h 05m
Length of Day
10h 11m
First Quarter, 51% of the Moon is Illuminated
Nov 20
First Quarter
Nov 28
Full
Dec 6
Last Quarter
Dec 13
New
Dec 19
First Quarter

Hourly Weather History & Observations

Time (CST) Temp. Dew Point Humidity Pressure Visibility Wind Dir Wind Speed Gust Speed Precip Events Conditions
12:15 AM 44.6 °F 44.6 °F 100% 30.18 in 10.0 mi Calm Calm - N/A   Clear
12:35 AM 44.6 °F 42.8 °F 93% 30.18 in 10.0 mi Calm Calm - N/A   Clear
12:55 AM 44.6 °F 42.8 °F 93% 30.18 in 5.0 mi Calm Calm - N/A   Clear
1:15 AM 42.8 °F 42.8 °F 100% 30.17 in 5.0 mi Calm Calm - N/A   Clear
1:35 AM 42.8 °F 42.8 °F 100% 30.17 in 7.0 mi Calm Calm - N/A   Clear
1:55 AM 42.8 °F 42.8 °F 100% 30.17 in 10.0 mi Calm Calm - N/A   Clear
2:15 AM 42.8 °F 42.8 °F 100% 30.17 in 4.0 mi Calm Calm - N/A   Clear
2:35 AM 42.8 °F 42.8 °F 100% 30.18 in 7.0 mi Calm Calm - N/A   Clear
6:15 AM 42.8 °F 42.8 °F 100% 30.19 in 5.0 mi Calm Calm - N/A   Mostly Cloudy
6:35 AM 42.8 °F 42.8 °F 100% 30.20 in 4.0 mi Calm Calm - N/A   Mostly Cloudy
6:55 AM 42.8 °F 42.8 °F 100% 30.20 in 3.0 mi Calm Calm - N/A   Overcast
7:15 AM 41.0 °F 41.0 °F 100% 30.21 in 1.8 mi Calm Calm - N/A   Mostly Cloudy
7:35 AM 42.8 °F 42.8 °F 100% 30.21 in 3.0 mi Calm Calm - N/A   Clear
7:55 AM 42.8 °F 42.8 °F 100% 30.22 in 3.0 mi Calm Calm - N/A   Clear
8:15 AM 44.6 °F 44.6 °F 100% 30.22 in 5.0 mi Calm Calm - N/A   Clear
8:35 AM 46.4 °F 46.4 °F 100% 30.22 in 4.0 mi Calm Calm - N/A   Clear
8:55 AM 51.8 °F 50.0 °F 94% 30.23 in 5.0 mi Calm Calm - N/A   Clear
9:15 AM 51.8 °F 50.0 °F 94% 30.22 in 7.0 mi Calm Calm - N/A   Clear
9:35 AM 55.4 °F 50.0 °F 82% 30.22 in 10.0 mi Calm Calm - N/A   Clear
9:55 AM 59.0 °F 50.0 °F 72% 30.22 in 7.0 mi SSW 3.5 mph - N/A   Clear
10:15 AM 60.8 °F 50.0 °F 68% 30.22 in 10.0 mi Calm Calm - N/A   Clear
10:35 AM 62.6 °F 50.0 °F 63% 30.22 in 10.0 mi Calm Calm - N/A   Clear
10:55 AM 62.6 °F 51.8 °F 68% 30.22 in 10.0 mi NE 3.5 mph - N/A   Clear
11:15 AM 64.4 °F 51.8 °F 64% 30.22 in 10.0 mi NNE 3.5 mph - N/A   Clear
11:35 AM 64.4 °F 51.8 °F 64% 30.21 in 10.0 mi Calm Calm - N/A   Clear
11:55 AM 68.0 °F 53.6 °F 60% 30.20 in 10.0 mi Calm Calm - N/A   Clear
12:15 PM 71.6 °F 55.4 °F 57% 30.19 in 10.0 mi NNE 6.9 mph - N/A   Clear
12:35 PM 71.6 °F 55.4 °F 57% 30.18 in 10.0 mi North 8.1 mph - N/A   Clear
12:55 PM 71.6 °F 55.4 °F 57% 30.17 in 7.0 mi Calm Calm - N/A   Clear
1:15 PM 73.4 °F 55.4 °F 53% 30.17 in 10.0 mi WSW 3.5 mph - N/A   Clear
1:35 PM 73.4 °F 55.4 °F 53% 30.16 in 10.0 mi South 3.5 mph - N/A   Clear
1:55 PM 73.4 °F 57.2 °F 57% 30.15 in 10.0 mi Calm Calm - N/A   Clear
2:15 PM 77.0 °F 59.0 °F 54% 30.15 in 10.0 mi West 5.8 mph - N/A   Clear
2:35 PM 77.0 °F 57.2 °F 50% 30.14 in 10.0 mi West 6.9 mph - N/A   Clear
2:55 PM 77.0 °F 57.2 °F 50% 30.14 in 10.0 mi West 4.6 mph - N/A   Clear
3:15 PM 77.0 °F 55.4 °F 47% 30.14 in 10.0 mi West 6.9 mph - N/A   Clear
3:35 PM 77.0 °F 51.8 °F 41% 30.13 in 10.0 mi West 6.9 mph - N/A   Clear
3:55 PM 77.0 °F 53.6 °F 44% 30.14 in 10.0 mi WNW 4.6 mph - N/A   Clear
4:15 PM 73.4 °F 53.6 °F 50% 30.14 in 10.0 mi West 4.6 mph - N/A   Clear
4:35 PM 71.6 °F 53.6 °F 53% 30.14 in 10.0 mi WNW 3.5 mph - N/A   Clear
4:55 PM 71.6 °F 55.4 °F 57% 30.14 in 10.0 mi Calm Calm - N/A   Clear
5:15 PM 68.0 °F 55.4 °F 64% 30.14 in 10.0 mi Calm Calm - N/A   Clear
5:35 PM 62.6 °F 53.6 °F 72% 30.15 in 10.0 mi Calm Calm - N/A   Clear
5:55 PM 62.6 °F 51.8 °F 68% 30.16 in 10.0 mi NNW 3.5 mph - N/A   Clear
6:15 PM 59.0 °F 51.8 °F 77% 30.16 in 10.0 mi Calm Calm - N/A   Clear
6:35 PM 59.0 °F 51.8 °F 77% 30.17 in 10.0 mi Calm Calm - N/A   Clear
6:55 PM 57.2 °F 51.8 °F 82% 30.17 in 10.0 mi Calm Calm - N/A   Clear
7:15 PM 55.4 °F 50.0 °F 82% 30.18 in 10.0 mi Calm Calm - N/A   Clear
7:35 PM 53.6 °F 50.0 °F 88% 30.19 in 10.0 mi Calm Calm - N/A   Clear
7:55 PM 51.8 °F 48.2 °F 88% 30.19 in 10.0 mi Calm Calm - N/A   Clear
8:15 PM 51.8 °F 50.0 °F 94% 30.20 in 10.0 mi Calm Calm - N/A   Clear
8:35 PM 51.8 °F 48.2 °F 88% 30.21 in 10.0 mi Calm Calm - N/A   Clear
8:55 PM 48.2 °F 46.4 °F 93% 30.21 in 10.0 mi Calm Calm - N/A   Clear
9:15 PM 48.2 °F 46.4 °F 93% 30.21 in 10.0 mi Calm Calm - N/A   Clear
9:35 PM 46.4 °F 46.4 °F 100% 30.22 in 10.0 mi Calm Calm - N/A   Clear
9:55 PM 46.4 °F 46.4 °F 100% 30.22 in 10.0 mi Calm Calm - N/A   Clear
10:15 PM 44.6 °F 44.6 °F 100% 30.22 in 7.0 mi Calm Calm - N/A   Clear
10:35 PM 44.6 °F 44.6 °F 100% 30.23 in 10.0 mi Calm Calm - N/A   Clear
10:55 PM 44.6 °F 44.6 °F 100% 30.23 in 10.0 mi Calm Calm - N/A   Clear
11:15 PM 42.8 °F 42.8 °F 100% 30.23 in 7.0 mi Calm Calm - N/A   Clear
11:35 PM 42.8 °F 42.8 °F 100% 30.23 in 2.0 mi Calm Calm - N/A   Mist
11:55 PM 42.8 °F 42.8 °F 100% 30.23 in 7.0 mi Calm Calm - N/A   Clear